Bishopton, United Kingdom

11:26 AM GMT on February 24, 2017 (GMT +0000)
Glasgow

Weather History for EGPF - October, 2012

Change the Weather History Date:

Sunday, October 7, 2012

  Actual Average Record
Temperature  
Mean Temperature 42 °F -  
Max Temperature 55 °F 52 °F 66 °F (2013)
Min Temperature 30 °F 41 °F 30 °F (2012)
Degree Days  
Heating Degree Days 22    
Moisture  
Dew Point 37 °F    
Average Humidity 83    
Maximum Humidity 100    
Minimum Humidity 58    
Precipitation  
Precipitation 0.00 in - - ()
Sea Level Pressure  
Sea Level Pressure 30.15 in    
Wind  
Wind Speed 3 mph ()    
Max Wind Speed 7 mph    
Max Gust Speed -    
Visibility 6.2 miles    
Events Fog    
Averages and records for this station are not official NWS values.
T = Trace of Precipitation, MM = Missing Value Source: Averaged Metar Reports

Daily Weather History Graph

Daily Weather History Graph

Search for Another Location

Airport or City:

Trip Planner

Search our weather history database for the weather conditions in past years. The results will help you decide how hot, cold, wet, or windy it might be!

Date:

Astronomy

Oct. 07, 2012 Rise Set
Actual Time 7:33 AM BST 6:36 PM BST
Civil Twilight 6:56 AM BST 7:13 PM BST
Nautical Twilight 6:13 AM BST 7:56 PM BST
Astronomical Twilight 5:29 AM BST 8:40 PM BST
Moon 10:49 PM BST (10/7) 2:47 PM BST (10/7)
Length of Visible Light 12h 17m
Length of Day
11h 03m
Waning Gibbous, 58% of the Moon is Illuminated
Oct 7
Waning Gibbous
Oct 8
Last Quarter
Oct 15
New
Oct 22
First Quarter
Oct 29
Full

Hourly Weather History & Observations

Time (BST) Temp. Windchill Dew Point Humidity Pressure Visibility Wind Dir Wind Speed Gust Speed Precip Events Conditions
12:20 AM 33.8 °F 29.6 °F 32.0 °F 93% 30.06 in - WSW 4.6 mph - N/A   Clear
12:50 AM 33.8 °F 29.6 °F 33.8 °F 100% 30.06 in - SW 4.6 mph - N/A   Clear
1:20 AM 35.6 °F 30.7 °F 33.8 °F 93% 30.09 in - SW 5.8 mph - N/A   Clear
1:50 AM 33.8 °F 30.8 °F 32.0 °F 93% 30.09 in - Variable 3.5 mph - N/A   Clear
2:20 AM 33.8 °F - 32.0 °F 93% 30.09 in - Variable 2.3 mph - N/A   Clear
2:50 AM 33.8 °F - 32.0 °F 93% 30.09 in - Calm Calm - N/A   Clear
3:20 AM 33.8 °F - 32.0 °F 93% 30.12 in 6.2 mi WSW 2.3 mph - N/A   Unknown
3:50 AM 33.8 °F - 32.0 °F 93% 30.12 in 6.2 mi West 2.3 mph - N/A   Unknown
4:20 AM 33.8 °F 30.8 °F 32.0 °F 93% 30.12 in 6.2 mi Variable 3.5 mph - N/A   Unknown
4:50 AM 32.0 °F - 30.2 °F 93% 30.12 in - Variable 2.3 mph - N/A   Clear
5:20 AM 32.0 °F - 32.0 °F 100% 30.12 in - Calm Calm - N/A   Clear
5:50 AM 32.0 °F - 32.0 °F 100% 30.12 in - Calm Calm - N/A   Clear
6:20 AM 32.0 °F - 30.2 °F 93% 30.12 in - NNE 2.3 mph - N/A   Clear
6:50 AM 32.0 °F 28.7 °F 30.2 °F 93% 30.12 in 6.2 mi Variable 3.5 mph - N/A Fog Unknown
7:20 AM 30.2 °F - 30.2 °F 100% 30.15 in 6.2 mi Variable 2.3 mph - N/A Fog Patches of Fog
7:50 AM 30.2 °F - 30.2 °F 100% 30.15 in 6.2 mi Calm Calm - N/A Fog Patches of Fog
8:20 AM 32.0 °F - 32.0 °F 100% 30.15 in 6.2 mi Variable 2.3 mph - N/A Fog Unknown
8:50 AM 35.6 °F - 33.8 °F 93% 30.18 in - Variable 2.3 mph - N/A   Clear
9:20 AM 37.4 °F - 35.6 °F 93% 30.18 in - Calm Calm - N/A   Clear
9:50 AM 41.0 °F - 37.4 °F 87% 30.18 in - Calm Calm - N/A   Clear
10:20 AM 42.8 °F - 37.4 °F 81% 30.18 in - Calm Calm - N/A   Clear
10:50 AM 46.4 °F - 39.2 °F 76% 30.18 in - Calm Calm - N/A   Clear
11:20 AM 48.2 °F - 39.2 °F 71% 30.21 in 6.2 mi Calm Calm - N/A   Partly Cloudy
11:50 AM 51.8 °F - 41.0 °F 67% 30.18 in 6.2 mi Calm Calm - N/A   Partly Cloudy
12:20 PM 51.8 °F - 42.8 °F 71% 30.18 in 6.2 mi Calm Calm - N/A   Partly Cloudy
12:50 PM 51.8 °F - 41.0 °F 67% 30.18 in 6.2 mi Variable 2.3 mph - N/A   Scattered Clouds
1:20 PM 53.6 °F - 39.2 °F 58% 30.18 in 6.2 mi WNW 6.9 mph - N/A   Scattered Clouds
1:50 PM 51.8 °F - 39.2 °F 62% 30.18 in 6.2 mi NW 6.9 mph - N/A   Scattered Clouds
2:20 PM 53.6 °F - 41.0 °F 62% 30.18 in 6.2 mi WNW 5.8 mph - N/A   Partly Cloudy
2:50 PM 53.6 °F - 41.0 °F 62% 30.18 in 6.2 mi WNW 5.8 mph - N/A   Scattered Clouds
3:20 PM 55.4 °F - 41.0 °F 58% 30.18 in 6.2 mi WNW 5.8 mph - N/A   Scattered Clouds
3:50 PM 55.4 °F - 41.0 °F 58% 30.18 in 6.2 mi West 4.6 mph - N/A   Scattered Clouds
4:20 PM 53.6 °F - 41.0 °F 62% 30.18 in 6.2 mi WNW 6.9 mph - N/A   Scattered Clouds
4:50 PM 53.6 °F - 42.8 °F 67% 30.15 in 6.2 mi WNW 6.9 mph - N/A   Scattered Clouds
5:20 PM 51.8 °F - 41.0 °F 67% 30.15 in 6.2 mi West 6.9 mph - N/A   Scattered Clouds
6:20 PM 48.2 °F - 41.0 °F 76% 30.15 in 6.2 mi West 4.6 mph - N/A   Scattered Clouds
6:50 PM 46.4 °F 42.9 °F 41.0 °F 81% 30.15 in 6.2 mi WSW 6.9 mph - N/A   Scattered Clouds
7:20 PM 46.4 °F 44.3 °F 41.0 °F 81% 30.18 in 6.2 mi WSW 4.6 mph - N/A   Scattered Clouds
7:50 PM 46.4 °F 43.5 °F 42.8 °F 87% 30.18 in 6.2 mi WSW 5.8 mph - N/A   Mostly Cloudy
8:20 PM 46.4 °F 42.9 °F 41.0 °F 81% 30.18 in 6.2 mi WSW 6.9 mph - N/A   Scattered Clouds
8:50 PM 46.4 °F 44.3 °F 41.0 °F 81% 30.18 in 6.2 mi West 4.6 mph - N/A   Scattered Clouds
9:20 PM 46.4 °F 44.3 °F 42.8 °F 87% 30.18 in 6.2 mi West 4.6 mph - N/A   Mostly Cloudy
9:50 PM 46.4 °F 45.2 °F 42.8 °F 87% 30.18 in 6.2 mi West 3.5 mph - N/A   Mostly Cloudy
10:20 PM 46.4 °F 44.3 °F 41.0 °F 81% 30.15 in 6.2 mi SW 4.6 mph - N/A   Mostly Cloudy
10:50 PM 46.4 °F - 41.0 °F 81% 30.15 in 6.2 mi Calm Calm - N/A   Mostly Cloudy
11:20 PM 44.6 °F - 41.0 °F 87% 30.15 in 6.2 mi Variable 2.3 mph - N/A   Mostly Cloudy
11:50 PM 44.6 °F 43.1 °F 41.0 °F 87% 30.15 in 6.2 mi SW 3.5 mph - N/A   Mostly Cloudy